When you browse on this site, cookies collect data to enhance your experience and personalize the content and advertising you see.
Visit our Privacy Policy to learn more. By continuing to use the site, you agree to this use of cookies and data.
  • In Netherlands
  • List of Countries
  • For 7 days
  • Water Temperature
  • Weather Map
  • Weather Widgets
  • user-avatar
    Login

    Hourly Weather La Paz

    Today, 19 September, Thursday

    Time Temperature Precipitation Wind Pressure Humidity
    00:00 +8°C° 0 mm 1 mps 472 mmHg 84%
    01:00 +7°C° 0 mm 1 mps 472 mmHg 87%
    02:00 +7°C° 0 mm 1 mps 471 mmHg 86%
    03:00 +7°C° 0 mm 1 mps 471 mmHg 84%
    04:00 +6°C° 0 mm 1 mps 471 mmHg 83%
    05:00 +7°C° 0 mm 1 mps 472 mmHg 70%
    06:00 +8°C° 0 mm 1 mps 473 mmHg 57%
    07:00 +9°C° 0 mm 1 mps 474 mmHg 44%
    08:00 +10°C° 0 mm 1 mps 475 mmHg 41%
    09:00 +12°C° 0 mm 1 mps 475 mmHg 38%
    10:00 +13°C° 0 mm 2 mps 476 mmHg 34%
    11:00 +14°C° 0.1 mm 2 mps 476 mmHg 34%
    12:00 +15°C° 0.1 mm 2 mps 477 mmHg 34%
    13:00 +16°C° 0.1 mm 3 mps 477 mmHg 34%
    14:00 +16°C° 0.1 mm 3 mps 476 mmHg 35%
    15:00 +16°C° 0.1 mm 2 mps 476 mmHg 37%
    16:00 +15°C° 0.1 mm 2 mps 475 mmHg 38%
    17:00 +14°C° 0 mm 2 mps 475 mmHg 46%
    18:00 +12°C° 0 mm 2 mps 474 mmHg 53%
    19:00 +10°C° 0 mm 2 mps 474 mmHg 61%
    20:00 +9°C° 0 mm 2 mps 474 mmHg 63%
    21:00 +8°C° 0 mm 2 mps 474 mmHg 64%
    22:00 +9°C° 0 mm 1 mps 474 mmHg 66%
    23:00 +8°C° 0 mm 1 mps 473 mmHg 68%

    Tomorrow, 20 September, Friday

    Time Temperature Precipitation Wind Pressure Humidity
    00:00 +8°C° 0 mm 1 mps 473 mmHg 71%
    01:00 +6°C° 0 mm 0 mps 473 mmHg 74%
    02:00 +6°C° 0 mm 0 mps 472 mmHg 74%
    03:00 +6°C° 0 mm 0 mps 472 mmHg 75%
    04:00 +5°C° 0 mm 0 mps 472 mmHg 76%
    05:00 +6°C° 0 mm 0 mps 473 mmHg 69%
    06:00 +8°C° 0 mm 1 mps 474 mmHg 62%
    07:00 +9°C° 0 mm 1 mps 475 mmHg 54%
    08:00 +11°C° 0 mm 1 mps 476 mmHg 51%
    09:00 +12°C° 0 mm 2 mps 477 mmHg 48%
    10:00 +14°C° 0 mm 2 mps 478 mmHg 44%
    11:00 +13°C° 0.1 mm 3 mps 478 mmHg 44%
    12:00 +14°C° 0.1 mm 3 mps 477 mmHg 45%
    13:00 +14°C° 0.1 mm 3 mps 477 mmHg 45%
    14:00 +14°C° 0.2 mm 4 mps 476 mmHg 49%
    15:00 +13°C° 0.2 mm 4 mps 476 mmHg 54%
    16:00 +12°C° 0.2 mm 4 mps 475 mmHg 58%
    17:00 +11°C° 0.1 mm 4 mps 474 mmHg 64%
    18:00 +10°C° 0.1 mm 4 mps 474 mmHg 70%
    19:00 +8°C° 0.1 mm 4 mps 474 mmHg 75%
    20:00 +7°C° 0 mm 4 mps 474 mmHg 76%
    21:00 +8°C° 0 mm 3 mps 474 mmHg 78%
    22:00 +8°C° 0 mm 3 mps 475 mmHg 79%
    23:00 +7°C° 0.3 mm 2 mps 474 mmHg 81%

    Day after tomorrow, 21 September, Saturday

    Time Temperature Precipitation Wind Pressure Humidity
    00:00 +7°C° 0.3 mm 2 mps 474 mmHg 84%
    01:00 +7°C° 0.3 mm 2 mps 474 mmHg 86%
    02:00 +8°C° 0.5 mm 1 mps 474 mmHg 87%
    03:00 +8°C° 0.5 mm 1 mps 474 mmHg 87%
    04:00 +7°C° 0.5 mm 1 mps 474 mmHg 88%
    05:00 +8°C° 0.4 mm 1 mps 474 mmHg 85%
    06:00 +8°C° 0.4 mm 1 mps 475 mmHg 83%
    07:00 +7°C° 0.4 mm 2 mps 475 mmHg 81%
    08:00 +9°C° 0.1 mm 2 mps 476 mmHg 75%
    09:00 +10°C° 0.1 mm 2 mps 477 mmHg 69%
    10:00 +12°C° 0.1 mm 2 mps 477 mmHg 63%
    11:00 +12°C° 0.4 mm 2 mps 477 mmHg 63%
    12:00 +13°C° 0.4 mm 2 mps 477 mmHg 63%
    13:00 +12°C° 0.4 mm 3 mps 476 mmHg 63%
    14:00 +12°C° 0.4 mm 3 mps 476 mmHg 62%
    15:00 +13°C° 0.4 mm 2 mps 476 mmHg 61%
    16:00 +13°C° 0.4 mm 2 mps 476 mmHg 60%
    17:00 +12°C° 0 mm 2 mps 475 mmHg 65%
    18:00 +10°C° 0 mm 2 mps 475 mmHg 70%
    19:00 +9°C° 0 mm 3 mps 475 mmHg 75%
    20:00 +8°C° 0 mm 3 mps 475 mmHg 77%
    21:00 +8°C° 0 mm 3 mps 475 mmHg 79%
    22:00 +7°C° 0 mm 3 mps 475 mmHg 81%
    23:00 +7°C° 0 mm 2 mps 474 mmHg 81%

    22 September, Sunday

    Time Temperature Precipitation Wind Pressure Humidity
    00:00 +6°C° 0 mm 2 mps 474 mmHg 82%
    01:00 +6°C° 0 mm 2 mps 473 mmHg 82%
    02:00 +7°C° 0 mm 1 mps 473 mmHg 83%
    03:00 +7°C° 0 mm 1 mps 473 mmHg 85%
    04:00 +6°C° 0 mm 1 mps 473 mmHg 86%
    05:00 +7°C° 0 mm 1 mps 474 mmHg 83%
    06:00 +7°C° 0 mm 1 mps 475 mmHg 79%
    07:00 +8°C° 0 mm 1 mps 476 mmHg 76%
    08:00 +10°C° 0 mm 1 mps 476 mmHg 70%
    09:00 +10°C° 0 mm 2 mps 477 mmHg 64%
    10:00 +13°C° 0 mm 2 mps 478 mmHg 58%
    11:00 +12°C° 0.1 mm 3 mps 478 mmHg 56%
    12:00 +13°C° 0.1 mm 3 mps 478 mmHg 54%
    13:00 +14°C° 0.1 mm 4 mps 478 mmHg 52%
    14:00 +13°C° 0.1 mm 4 mps 477 mmHg 54%
    15:00 +12°C° 0.1 mm 4 mps 477 mmHg 56%
    16:00 +12°C° 0.1 mm 4 mps 476 mmHg 58%
    17:00 +11°C° 0 mm 4 mps 476 mmHg 64%
    18:00 +8°C° 0 mm 4 mps 475 mmHg 69%
    19:00 +8°C° 0 mm 3 mps 475 mmHg 75%
    20:00 +8°C° 0 mm 3 mps 475 mmHg 76%
    21:00 +7°C° 0 mm 3 mps 475 mmHg 78%
    22:00 +7°C° 0 mm 2 mps 475 mmHg 80%
    23:00 +6°C° 0 mm 2 mps 475 mmHg 80%

    23 September, Monday

    Time Temperature Precipitation Wind Pressure Humidity
    00:00 +6°C° 0 mm 2 mps 474 mmHg 81%
    01:00 +6°C° 0 mm 1 mps 474 mmHg 81%
    02:00 +6°C° 0 mm 1 mps 474 mmHg 80%
    03:00 +6°C° 0 mm 1 mps 473 mmHg 78%
    04:00 +4°C° 0 mm 0 mps 473 mmHg 77%
    05:00 +5°C° 0 mm 0 mps 474 mmHg 69%
    06:00 +6°C° 0 mm 0 mps 475 mmHg 61%
    07:00 +8°C° 0 mm 0 mps 476 mmHg 54%
    08:00 +10°C° 0 mm 1 mps 477 mmHg 49%
    09:00 +12°C° 0 mm 1 mps 478 mmHg 45%
    10:00 +14°C° 0 mm 2 mps 479 mmHg 41%
    11:00 +13°C° 0 mm 3 mps 479 mmHg 42%
    12:00 +14°C° 0 mm 3 mps 479 mmHg 43%
    13:00 +15°C° 0 mm 4 mps 479 mmHg 43%
    14:00 +14°C° 0 mm 4 mps 478 mmHg 47%
    15:00 +13°C° 0 mm 4 mps 477 mmHg 50%
    16:00 +12°C° 0 mm 4 mps 476 mmHg 53%
    17:00 +11°C° 0 mm 3 mps 476 mmHg 56%
    18:00 +10°C° 0 mm 3 mps 476 mmHg 59%
    19:00 +9°C° 0 mm 2 mps 475 mmHg 62%
    20:00 +8°C° 0 mm 2 mps 475 mmHg 60%
    21:00 +8°C° 0 mm 2 mps 475 mmHg 58%
    22:00 +7°C° 0 mm 2 mps 475 mmHg 56%
    23:00 +7°C° 0 mm 2 mps 475 mmHg 58%

    24 September, Tuesday

    Time Temperature Precipitation Wind Pressure Humidity
    00:00 +6°C° 0 mm 2 mps 474 mmHg 61%
    01:00 +5°C° 0 mm 2 mps 474 mmHg 63%
    02:00 +5°C° 0 mm 2 mps 474 mmHg 67%
    03:00 +4°C° 0 mm 2 mps 473 mmHg 71%
    04:00 +4°C° 0 mm 2 mps 473 mmHg 75%
    05:00 +5°C° 0 mm 2 mps 474 mmHg 73%
    06:00 +4°C° 0 mm 3 mps 475 mmHg 71%
    07:00 +5°C° 0 mm 3 mps 476 mmHg 69%
    08:00 +8°C° 0 mm 3 mps 477 mmHg 59%
    09:00 +10°C° 0 mm 3 mps 478 mmHg 50%
    10:00 +11°C° 0 mm 4 mps 479 mmHg 40%
    11:00 +12°C° 0 mm 4 mps 479 mmHg 38%
    12:00 +13°C° 0 mm 4 mps 479 mmHg 36%
    13:00 +14°C° 0 mm 4 mps 479 mmHg 34%
    14:00 +13°C° 0 mm 4 mps 478 mmHg 38%
    15:00 +13°C° 0 mm 4 mps 477 mmHg 42%
    16:00 +12°C° 0 mm 4 mps 477 mmHg 47%
    17:00 +11°C° 0 mm 3 mps 476 mmHg 54%
    18:00 +9°C° 0 mm 3 mps 476 mmHg 61%
    19:00 +8°C° 0 mm 2 mps 475 mmHg 68%
    20:00 +7°C° 0 mm 2 mps 475 mmHg 69%
    21:00 +7°C° 0 mm 2 mps 475 mmHg 71%
    22:00 +6°C° 0 mm 2 mps 475 mmHg 72%
    23:00 +6°C° 0 mm 2 mps 475 mmHg 75%
    Show more